Other Public Products
Issued by NWS Grand Forks, ND

Home | Current Version | Previous Version | Text Only | Print | Product List | Glossary Off
Versions: 1 2 3 4 5 6 7 8 9 10 11 12 13 14 15 16 17 18 19 20 21 22 23 24 25 26 27 28 29 30 31 32 33 34 35 36 37 38 39 40 41 42 43 44 45 46 47 48 49 50

707
FPUS83 KFGF 221410
OPUFGF
PRAIRIE TO PINES WEATHER ROUNDUP
NATIONAL WEATHER SERVICE EASTERN NORTH DAKOTA/GRAND FORKS ND
900 AM CDT FRI SEP 22 2017

 **SATELLITE DATA USED TO AUGMENT SKY COVER AT AUTOMATED STATIONS**
 *****  WEATHER ACROSS EASTERN NORTH DAKOTA  *****

CITY           SKY/WX    TMP DP  RH WIND       PRES   REMARKS
GRAND FORKS    CLOUDY    58  53  84 N15       29.81F
GRAND FORKS AF CLOUDY    56  50  81 N13       29.83S
GRAND CITY NWS NOT AVBL
BUXTON         NOT AVBL
DEVILS LAKE    CLOUDY    52  44  74 NE15      29.87R
FARGO          CLOUDY    63  61  93 N10       29.75S
WAHPETON ARPT  CLOUDY    66  61  82 E5        29.74S
$$

 *****  WEATHER ACROSS CENTRAL AND WESTERN NORTH DAKOTA  *****

CITY           SKY/WX    TMP DP  RH WIND       PRES   REMARKS
JAMESTOWN      CLOUDY    58  49  72 NE15G30   29.77S
BISMARCK       CLOUDY    55  43  63 NE16G25   29.80R
MINOT          PTSUNNY   48  40  73 N13       29.90F
MINOT AFB      CLOUDY    47  39  75 N12       29.90R
GARRISON         N/A     50  39  66 NE17G24   29.85F
WILLISTON      CLOUDY    46  39  76 N12       29.98R
DICKINSON      CLOUDY    49  38  65 N17       29.85R
HETTINGER      CLOUDY    51  37  58 N20       29.81S
$$

 *****  OTHER OBSERVATIONS NORTHEAST NORTH DAKOTA  *****

CITY           SKY/WX    TMP DP  RH WIND       PRES   REMARKS
WALHALLA       FAIR     N/A N/A N/A N16       29.88F
LANGDON        FAIR      52  46  82 NE20      29.86F
CAVALIER       FAIR      52  46  82 N16G23    29.87S
GRAFTON        PTSUNNY   54  50  87 N13       29.87R
CANDO          PTSUNNY   50  46  87 N17G25    29.89R
FORT TOTTEN      N/A     53  45  75 NE7       29.95
ROLLA          FAIR      48  39  71 N16       29.91F
RUGBY          PTSUNNY   50  41  71 NE14G21   29.87F
 ***** THE ABOVE OBSERVATIONS ARE NON NWS ARE NOT QUALITY
        CONTROLLED AND MAY MIS-REPORT RAIN FOR SNOW...
$$

 *****  OTHER OBSERVATIONS SOUTHEAST NORTH DAKOTA *****

CITY           SKY/WX    TMP DP  RH WIND       PRES   REMARKS
COOPERSTOWN    CLOUDY    57  50  77 NE23G31   29.79F
VALLEY CITY    CLOUDY    57  55  94 NE14G22   29.79F
OAKES          NOT AVBL
GWINNER        FOG       63  63 100 NE10      29.73S VSB 3/4
SHEYENNE NWR     N/A     62  62 100 NE8       29.95S
BUFFALO        NOT AVBL
WYNDMERE       NOT AVBL
 ***** THE ABOVE OBSERVATIONS ARE NON NWS ARE NOT QUALITY
       CONTROLLED AND MAY MIS-REPORT RAIN FOR SNOW...
$$

  *****  WEATHER ACROSS NORTHERN MINNESOTA  *****

CITY           SKY/WX    TMP DP  RH WIND       PRES   REMARKS
FLAG ISLAND    FAIR      59  55  88 N9        29.82F
WARROAD        FAIR      55  52  88 N8G16     29.83F
ROSEAU         FAIR      57  52  82 N8        29.83S
HALLOCK          N/A     59  52  77 N12       29.84F
THF RVR FALLS  FAIR      60  56  86 NE13      29.81F
HALSTAD        NOT AVBL
FOSSTON        FOG       61  61 100 NE3       29.80R VSB 1/4
BAUDETTE       FAIR      61  61 100 N6        29.80F
WASKISH        FAIR      63  63 100 CALM      29.79R
CROOKSTON      CLOUDY    63  57  82 N10       29.79F
$$
  *****  WEATHER ACROSS CENTRAL AND WEST MINNESOTA  *****

CITY           SKY/WX    TMP DP  RH WIND       PRES   REMARKS
BEMIDJI        CLOUDY    65  65 100 S3        29.80R FOG
PARK RAPIDS    FAIR      69  65  86 SE6       29.81R
WADENA         CLOUDY    64  64 100 E7        29.80S
DETROIT LAKES  FAIR      70  66  88 SE9       29.78S
MOORHEAD       CLOUDY    66  64  94 N7        29.76R FOG
FERGUS FALLS   FAIR      70  63  78 SE13      29.75S
ELBOW LAKE     CLOUDY    68  65  90 SE9       29.76R
MORRIS MN      FAIR      75  73  94 SE10      29.75R
STAPLES        FAIR      64  64 100 CALM      29.82R
WHEATON        PTSUNNY   73  68  83 E8        29.74S
$$
  *****  WEATHER ELSEWHERE ACROSS MINNESOTA  *****

CITY           SKY/WX    TMP DP  RH WIND       PRES   REMARKS
DULUTH         PTSUNNY   67  61  81 E16       29.88F
INTRNTL FALLS  CLOUDY    63  61  93 E5        29.81F
ELY            LGT RAIN  64  63  94 SE22G32   29.80F
CLOQUET        TSTM      64  63  94 S21G46    30.00R
BRAINERD       FAIR      65  63  93 VRB5      29.82R
HIBBING        FAIR      66  58  75 SW9G16    29.79R
ALEXANDRIA     CLOUDY    72  66  81 SE13      29.80S
SAINT CLOUD    LGT RAIN  71  71 100 E6        29.84R FOG
MINNEAPOLIS    PTSUNNY   76  72  87 SE9       29.85R
$$

  *****  WEATHER ACROSS SOUTH DAKOTA  *****

CITY           SKY/WX    TMP DP  RH WIND       PRES   REMARKS
SIOUX FALLS    FAIR      78  72  81 S18G30    29.73S
BROOKINGS      FAIR      75  71  87 S12G22    29.73F
WATERTOWN      FAIR      73  72  96 S13       29.71R
HURON          FAIR      76  71  85 SE14G24   29.64R
SISSETON         N/A     71  71 100 CALM      29.71S
ABERDEEN       FAIR      68  66  93 NE6       29.65F
MITCHELL       FAIR      79  71  76 S10       29.66R
PIERRE         FAIR      63  58  83 SW7       29.59R
MOBRIDGE       CLOUDY    63  56  78 NE18G25   29.62F
RAPID CITY     CLOUDY    52  39  62 N20G28    29.79R
$$

  *****  SOME WEATHER IN NEARBY STATES *****

CITY           SKY/WX    TMP DP  RH WIND       PRES   REMARKS
GLASGOW MT     CLOUDY    42  37  82 NW10      30.03R
GREAT FALLS MT MIX PCPN  34  32  92 NE9       30.06S
CHEYENNE WY    FAIR      45  36  70 W8        29.86R
SCOTTSBLUFF NE FAIR      46  40  79 NW9       29.80S
OMAHA NE       FAIR      79  69  71 S20       29.84R
DES MOINES IA  FAIR      77  70  79 S10       29.93R
DAVENPORT IA   FAIR      77  69  76 S8        30.05R
CHICAGO IL     FAIR      80  67  64 SW5       30.07S
EAU CLAIRE WI  FAIR      75  69  81 S10       29.91R
LA CROSSE WI   FAIR      81  70  69 S15       29.94R
$$

  *****  SOME NATIONAL WEATHER *****

CITY           SKY/WX    TMP DP  RH WIND       PRES   REMARKS
LA GUARDIA NY  FAIR      71  50  47 N15G24    30.01S
RALEIGH NC     FAIR      77  67  71 VRB5      30.09F
ATLANTA GA     FAIR      77  67  71 NE3       30.09S
NEW ORLEANS LA FAIR      82  72  71 NE8       29.99S
OKLAHOMA CITY  PTSUNNY   73  69  87 S15       29.95R
ALBUQUERQUE NM PTSUNNY   66  35  31 CALM      29.98R
SALT LAKE CITY LGT RAIN  46  40  79 CALM      29.87R
LOS ANGELES CA FAIR      60  53  77 E6        29.86S
BOISE ID       CLOUDY    43  39  86 W9        29.89S
SEATTLE WA     MOCLDY    51  47  86 S5        30.05R
$$

*** WEATHER ACROSS MANITOBA...SASKATCHEWAN AND ONTARIO ***
                ***ONTARIO***

CITY           SKY/WX    TMP DP  RH WIND       PRES   REMARKS
GERALDTON      FOG       64  64 100 S8        29.90F VSB 1
THUNDER BAY    CLOUDY    55  55 100 SW3       29.91R
SIOUX LOOKOUT  PTSUNNY   61  59  94 CALM      29.88R
TORONTO        MOSUNNY   75  61  60 S3        30.16S
BIG TROUT LK   CLOUDY    55  50  82 NW7       29.81R
PICKLE LAKE    MOSUNNY   59  52  77 W7        29.86S
DRYDEN         SUNNY     59  57  94 VRB2      29.86F
KENORA         PTSUNNY   57  54  88 N10       29.85F
$$
                *** MANITOBA***

CITY           SKY/WX    TMP DP  RH WIND       PRES   REMARKS
BRANDON        MOSUNNY   46  41  81 NE3       29.94R
DAUPHIN        PTSUNNY   46  41  81 W5        29.98R
ISLAND LAKE    PTSUNNY   50  48  93 W7        29.88R
PILOT MOUND      N/A     48  39  71 N13         N/A
THE PAS        PTSUNNY   45  39  81 NW7       29.99R
THOMPSON       CLOUDY    43  43 100 W8        29.91R FOG
WINNIPEG       PTSUNNY   54  46  76 N12       29.89S
LYNN LAKE      CLOUDY    37  37 100 N9G17     30.01R
CHURCHILL      LGT RAIN  45  43  93 N20       29.87R
GILLAM         PTSUNNY   46  45  93 W8        29.83R
$$
                ***SASKATCHEWAN***

CITY           SKY/WX    TMP DP  RH WIND       PRES   REMARKS
ESTEVAN        LGT RAIN  43  41  93 N8        29.98R
KINDERSLEY     CLOUDY    39  37  93 NE7       30.07R
LLOYDMINSTER   CLOUDY    39  39 100 N5        30.09S
PRINCE ALBERT  MOCLDY    41  39  93 N7        30.08R
REGINA         CLOUDY    39  37  93 N6        30.02R
YORKTON        PTSUNNY   41  39  93 NW7       30.00R



USA.gov is the U.S. government's official web portal to all federal, state and local government web resources and services.